User: anonymous   Login
Location: Brno
(49.2000°N, 16.6330°E)
Time: 21:30:18
(UTC+01:00)
Language:

BREEZE M DEB (TANK) - Orbit

View from above orbital plane
View from above orbital plane
View from above satellite
View from above satellite

Ground track
Ground track

The orbit data is extracted from the following two-line orbital elements,

1 28359U 04022B   14330.04113771  .00004054  00000-0  63048-3 0  3014
2 28359 049.5088 254.5988 4701277 157.7762 336.7123 06.12404617227611
Epoch (UTC): 26 November 2014 00:59:14
Eccentricity: 0.4701277
inclination: 49.5088°
perigee height: 308 km
apogee height: 12174 km
right ascension of ascending node: 254.5988°
argument of perigee: 157.7762°
revolutions per day: 6.12404617
mean anomaly at epoch: 336.7123°
orbit number at epoch: 22761

The dashed part of the orbit path shows where the satellite is in the earth's shadow,  

DLR